SCP
0 0 0 0 0 0 0 0 0 0 0 0 0 0 0 0 0 0 0 0 0 0 0 0 0 0 0 0 0 0 0 0 0 0 0 0 0 0 0 0 0 0 0
0 0 0 0 0 0 0 0 0 0 0 0 0 0 0 0 0 0 0 0 0 0 0 0 0 0 0 0 0 0 0 0 0 0 0 0 0 0 0 0 0 0 0
0 0 0 0 0 0 0 0 0 0 0 0 0 0 0 0 0 0 0 0 0 0 0 0 0 0 0 0 0 0 0 0 0 0 0 0 0 0 0 0 0 0 0
0 0 0 0 0 0 0 0 0 0 0 0 0 0 0 0 0 0 0 0 0 0 0 0 0 0 0 0 0 0 0 0 0 0 0 0 0 0 0 0 0 0 0
0 0 0 0 0 0 0 0 0 0 0 0 0 0 0 0 0 0 0 0 0 0 0 0 0 0 0 0 0 0 0 0 0 0 0 0 0 0 0 0 0 0 0
0 0 0 0 0 0 0 0 0 0 0 0 0 0 0 0 0 0 0 0 0 0 0 0 0 0 0 0 0 0 0 0 0 0 0 0 0 0 0 0 0 0 0
0 0 0 0 0 0 0 0 0 0 0 0 0 0 0 0 0 0 0 0 0 0 0 0 0 0 0 0 0 0 0 0 0 0 0 0 0 0 0 0 0 0 0
0 0 0 0 0 0 0 0 0 0 0 0 0 0 0 0 0 0 0 0 0 0 0 0 0 0 0 0 0 0 0 0 0 0 0 0 0 0 0 0 0 0 0
0 0 0 0 0 0 0 0 0 0 0 0 0 0 0 0 0 0 0 0 0 0 0 0 0 0 0 0 0 0 0 0 0 0 0 0 0 0 0 0 0 0 0
0 0 0 0 0 0 0 0 0 0 0 0 0 0 0 0 0 0 0 0 0 0 0 0 0 0 0 0 0 0 0 0 0 0 0 0 0 0 0 0 0 0 0
0 0 0 0 0 0 0 0 0 0 0 0 0 0 0 0 0 0 0 0 0 0 0 0 0 0 0 0 0 0 0 0 0 0 0 0 0 0 0 0 0 0 0
0 0 0 0 0 0 0 0 0 0 0 0 0 0 0 0 0 0 0 0 0 0 0 0 0 0 0 0 0 0 0 0 0 0 0 0 0 0 0 0 0 0 0
0 0 0 0 0 0 0 0 0 0 0 0 0 0 0 0 0 0 0 0 0 0 0 0 0 0 0 0 0 0 0 0 0 0 0 0 0 0 0 0 0 0 0
0 0 0 0 0 0 0 0 0 0 0 0 0 0 0 0 0 0 0 0 0 0 0 0 0 0 0 0 0 0 0 0 0 0 0 0 0 0 0 0 0 0 0
0 0 0 0 0 0 0 0 0 0 0 0 0 0 0 0 0 0 0 0 0 0 0 0 0 0 0 0 0 0 0 0 0 0 0 0 0 0 0 0 0 0 0
0 0 0 0 0 0 0 0 0 0 0 0 0 0 0 0 0 0 0 0 0 0 0 0 0 0 0 0 0 0 0 0 0 0 0 0 0 0 0 0 0 0 0
0 0 0 0 0 0 0 0 0 0 0 0 0 0 0 0 0 0 0 0 0 0 0 0 0 0 0 0 0 0 0 0 0 0 0 0 0 0 0 0 0 0 0
0 0 0 0 0 0 0 0 0 0 0 0 0 0 0 0 0 0 0 0 0 0 0 0 0 0 0 0 0 0 0 0 0 0 0 0 0 0 0 0 0 0 0
0 0 0 0 0 0 0 0 0 0 0 0 0 0 0 0 0 0 0 0 0 0 0 0 0 0 0 0 0 0 0 0 0 0 0 0 0 0 0 0 0 0 0
0 0 0 0 0 0 0 0 0 0 0 0 0 0 0 0 0 0 0 0 0 0 0 0 0 0 0 0 0 0 0 0 0 0 0 0 0 0 0 0 0 0 0
0 0 0 0 0 0 0 0 0 0 0 0 0 0 0 0 0 0 0 0 0 0 0 0 0 0 0 0 0 0 0 0 0 0 0 0 0 0 0 0 0 0 0
0 0 0 0 0 0 0 0 0 0 0 0 0 0 0 0 0 0 0 0 0 0 0 0 0 0 0 0 0 0 0 0 0 0 0 0 0 0 0 0 0 0 0
0 0 0 0 0 0 0 0 0 0 0 0 0 0 0 0 0 0 0 0 0 0 0 0 0 0 0 0 0 0 0 0 0 0 0 0 0 0 0 0 0 0 0
0 0 0 0 0 0 0 0 0 0 0 0 0 0 0 0 0 0 0 0 0 0 0 0 0 0 0 0 0 0 0 0 0 0 0 0 0 0 0 0 0 0 0
0 0 0 0 0 0 0 0 0 0 0 0 0 0 0 0 0 0 0 0 0 0 0 0 0 0 0 0 0 0 0 0 0 0 0 0 0 0 0 0 0 0 0
0 0 0 0 0 0 0 0 0 0 0 0 0 0 0 0 0 0 0 0 0 0 0 0 0 0 0 0 0 0 0 0 0 0 0 0 0 0 0 0 0 0 0
Wind_Speed_500mb
15 13 12 11 9 7 7 6 3 0 3 5 7 7 7 11 17 14 16 21 16 14 15 14 13 12 13 11 15 17 17 16 17 18 16 16 17 18 18 18 18 18 18
23 21 21 17 16 12 11 9 8 7 9 13 13 12 13 17 21 22 24 28 30 16 23 21 18 18 14 16 15 20 20 18 18 19 18 18 17 16 17 15 15 13 14
31 30 28 22 18 18 18 16 16 15 18 19 22 18 20 25 27 30 32 33 33 32 27 30 28 27 23 23 22 26 24 25 23 22 23 20 20 18 17 15 13 11 10
38 37 35 30 28 25 29 29 30 29 28 28 28 27 31 32 36 38 35 36 39 42 41 38 37 35 36 33 28 28 29 29 27 26 25 24 23 22 21 19 15 11 8
38 41 38 36 37 36 38 39 40 44 44 42 42 39 44 45 47 49 47 44 47 48 50 49 48 53 45 41 40 37 36 37 36 34 31 29 27 26 24 20 18 15 10
42 47 46 44 45 48 48 45 45 48 52 55 55 57 54 55 57 58 58 60 59 59 61 59 56 60 62 58 48 43 44 44 45 42 37 34 33 30 30 26 23 19 14
49 52 53 54 55 59 56 53 54 58 52 62 62 69 67 66 69 69 67 70 72 72 69 68 71 70 70 70 66 55 51 51 52 53 47 43 40 36 33 28 24 21 17
58 56 59 60 57 61 65 65 67 67 63 63 73 70 60 66 74 71 78 79 80 80 79 78 79 78 80 78 78 71 60 59 59 58 54 50 46 42 38 34 30 26 22
62 64 65 68 69 68 68 71 75 79 79 82 72 75 27 44 53 56 61 63 70 73 81 83 85 88 88 86 87 86 80 73 65 65 60 56 52 45 43 38 34 31 26
62 64 66 70 73 71 70 75 77 80 83 86 89 94 96 95 62 53 61 64 67 70 71 76 82 91 95 96 94 98 96 90 85 73 67 63 55 51 47 42 38 35 29
64 64 64 67 68 70 72 76 77 77 78 80 86 90 92 100 108 96 80 78 88 90 86 86 76 88 95 101 103 106 104 106 98 85 83 84 64 57 51 43 42 38 33
57 59 59 58 63 72 69 73 74 75 74 80 93 88 95 93 85 85 104 114 107 97 92 94 94 85 94 96 106 111 112 113 108 102 96 98 79 65 52 50 47 43 36
48 51 53 53 57 63 68 71 77 79 78 81 87 92 92 107 96 106 98 98 101 106 101 98 104 91 92 99 95 108 112 117 112 113 108 111 89 80 68 57 51 46 43
38 42 46 50 53 57 63 68 76 79 82 83 91 91 94 94 98 97 98 99 94 92 102 110 100 99 93 87 80 89 96 115 116 116 119 115 105 98 77 60 55 51 48
26 30 36 41 45 50 54 61 70 76 82 84 88 90 95 99 99 98 98 95 94 92 99 78 82 87 85 82 78 80 78 90 106 118 118 118 101 106 80 63 59 54 48
36 37 39 41 42 45 48 55 62 68 75 81 86 88 92 94 94 97 98 96 98 96 113 84 91 93 87 83 89 87 86 86 88 110 122 120 107 91 81 65 62 57 51
43 44 45 47 49 50 51 56 61 65 72 77 83 88 93 92 96 93 95 97 96 95 102 115 97 99 98 97 94 88 91 88 84 89 121 131 107 87 80 73 66 63 62
46 50 52 54 55 57 58 61 65 67 72 78 81 84 90 92 96 92 92 96 95 93 97 106 101 103 102 100 92 91 86 86 83 86 100 122 108 85 80 81 72 65 63
50 52 56 59 61 61 61 60 63 68 73 77 79 80 83 83 87 86 87 83 90 91 93 97 101 99 102 99 92 88 83 82 83 82 78 88 93 86 79 82 71 64 64
57 56 55 58 61 65 67 69 70 71 73 75 77 78 78 78 82 81 77 80 82 87 87 90 94 96 98 100 89 82 81 82 80 76 70 86 91 81 83 78 64 66 57
62 62 62 59 60 63 65 67 69 74 79 81 80 79 78 75 71 67 71 76 78 82 84 87 92 94 98 97 99 91 81 75 75 72 70 85 91 82 77 72 66 60 60
73 72 70 70 69 65 65 68 74 77 75 77 82 83 79 72 67 65 70 72 75 80 86 88 92 95 95 97 92 80 72 70 68 75 71 90 98 92 83 75 67 64 61
78 78 78 76 75 69 67 68 70 74 76 77 76 77 78 76 65 65 69 72 76 79 84 87 92 93 89 88 77 69 69 71 80 71 75 88 93 88 84 75 68 66 56
85 85 83 79 78 75 73 72 71 72 73 74 75 75 72 71 68 63 65 71 72 73 76 79 82 85 83 80 66 57 58 63 64 58 63 67 88 92 86 71 66 60 55
86 87 86 85 85 83 75 73 73 72 72 72 70 68 64 65 61 61 65 71 72 71 68 70 63 65 62 55 49 49 53 61 52 46 62 56 74 74 70 67 61 53 58
84 85 86 82 82 84 79 77 73 72 72 71 71 66 53 53 57 59 61 62 66 62 55 46 39 43 42 39 41 37 45 60 58 45 56 57 52 57 55 63 59 62 58
Wind_Direction_500mb
248 249 252 252 240 241 228 204 170 137 342 332 332 311 282 266 275 271 267 278 239 239 232 202 207 207 185 186 177 174 172 173 169 166 168 158 151 144 139 132 126 116 110
253 251 248 255 245 241 237 237 245 276 305 310 299 297 291 270 274 283 282 281 284 260 251 244 239 242 229 212 205 196 191 192 189 180 179 172 169 161 156 151 142 130 114
255 254 249 252 256 258 256 242 236 265 280 295 287 284 285 277 278 282 285 285 281 278 258 246 231 228 236 220 213 207 207 202 201 198 194 184 189 184 180 174 166 158 139
253 253 253 252 256 257 257 259 260 261 267 262 268 277 275 286 277 267 263 283 290 280 273 262 263 231 224 217 226 221 214 211 210 208 201 194 201 200 198 194 191 183 177
255 255 258 257 255 259 259 263 265 263 262 264 266 263 264 264 264 262 267 265 262 266 267 266 265 266 254 226 225 223 229 220 215 209 208 211 209 210 211 208 207 206 202
262 260 259 262 260 259 259 259 266 270 268 268 267 265 267 266 264 263 262 260 263 269 263 262 264 262 261 254 239 233 232 229 228 216 218 217 216 210 216 217 217 219 218
266 263 263 264 263 265 269 262 263 264 270 272 266 269 272 268 270 267 263 262 262 262 264 264 261 261 260 258 254 243 234 231 227 228 223 219 221 220 221 221 223 226 226
272 269 266 264 263 264 266 265 263 262 264 267 261 266 263 268 276 275 268 267 268 265 266 266 263 263 263 262 261 255 239 233 231 230 222 222 221 223 222 222 225 229 231
276 275 273 270 271 267 267 268 266 263 262 262 265 258 243 262 273 275 273 270 269 264 267 267 265 263 260 260 260 257 253 240 233 233 228 224 221 223 224 225 226 228 232
278 280 278 274 276 279 275 274 267 270 263 268 263 260 263 258 260 274 266 271 271 268 269 268 267 265 265 262 259 256 254 248 238 234 234 228 225 225 224 225 226 229 227
281 281 281 278 278 280 277 279 273 276 272 272 272 273 272 264 261 261 271 269 270 275 274 267 275 267 267 261 261 258 256 247 242 238 232 236 227 227 225 230 229 229 228
282 282 283 282 282 280 279 278 282 280 280 280 277 273 275 267 276 265 275 270 270 279 276 275 269 275 274 266 264 262 256 248 245 240 235 234 232 221 233 231 230 228 226
279 280 282 277 275 274 277 278 277 277 278 276 273 275 275 275 276 269 271 276 274 287 277 283 276 279 284 274 276 265 261 250 246 243 240 230 228 226 236 229 230 229 224
280 279 276 272 269 265 265 271 272 274 274 272 274 276 274 273 273 276 273 278 275 279 281 282 281 282 286 278 285 279 272 256 248 240 238 236 230 230 235 230 227 225 224
296 287 282 280 278 275 270 268 265 265 268 270 270 270 271 274 275 274 277 273 276 274 275 276 281 283 282 282 282 284 275 268 253 239 241 235 229 235 229 224 225 223 226
308 303 298 293 288 282 278 275 273 272 272 274 273 272 271 271 273 273 273 273 273 271 275 275 279 281 282 278 282 281 280 277 263 244 238 233 230 235 226 220 222 221 229
317 311 305 299 295 292 289 284 281 279 277 277 277 277 277 277 277 274 275 273 274 273 271 282 279 280 280 283 281 281 282 274 270 250 235 236 239 223 224 220 218 222 241
321 317 313 308 304 301 296 290 287 283 280 279 278 276 276 274 273 270 273 274 274 276 275 278 282 282 284 285 282 279 277 273 266 257 239 235 239 217 219 220 218 233 232
325 320 317 316 314 310 304 299 293 290 288 287 285 282 280 278 276 273 272 275 275 276 276 277 281 280 281 279 277 276 273 268 261 256 245 234 217 213 212 219 229 229 246
325 320 317 314 312 309 308 305 301 298 295 293 290 287 283 278 274 276 275 274 275 276 276 275 278 277 278 278 275 270 266 263 254 250 239 228 215 209 213 224 219 234 232
323 320 316 311 308 307 306 305 302 300 298 294 291 290 288 284 281 278 274 274 274 273 272 272 273 273 272 274 272 273 266 258 249 245 231 217 211 207 218 214 227 221 229
322 320 318 314 311 307 304 302 301 299 299 299 297 293 289 288 286 278 274 271 269 270 270 270 271 269 272 274 272 272 265 241 228 237 224 214 208 211 214 223 223 226 241
319 319 319 318 313 313 310 307 304 303 302 300 296 295 294 291 287 283 280 276 271 267 266 270 271 269 272 270 275 272 262 256 241 230 214 211 214 214 216 218 227 242 242
313 314 314 314 312 313 311 309 307 305 302 299 297 295 292 291 288 286 285 280 277 274 270 268 265 269 268 271 274 275 273 248 232 232 215 200 212 213 217 223 234 236 241
307 308 310 313 312 311 311 310 308 306 303 300 298 295 294 292 288 284 281 281 281 278 275 272 269 263 264 264 263 259 233 218 197 201 201 203 204 212 217 228 229 232 236
306 307 307 310 312 310 310 309 307 303 301 300 297 299 300 291 288 285 281 280 279 283 284 281 271 262 253 250 254 253 248 213 198 185 202 202 212 214 217 225 225 226 228
Wind_Speed_850mb
15 13 12 11 9 7 7 6 3 0 3 5 7 7 7 11 17 14 16 21 16 14 15 14 13 12 13 11 15 17 17 16 17 18 16 16 17 18 18 18 18 18 18
23 21 21 17 16 12 11 9 8 7 9 13 13 12 13 17 21 22 24 28 30 16 23 21 18 18 14 16 15 20 20 18 18 19 18 18 17 16 17 15 15 13 14
31 30 28 22 18 18 18 16 16 15 18 19 22 18 20 25 27 30 32 33 33 32 27 30 28 27 23 23 22 26 24 25 23 22 23 20 20 18 17 15 13 11 10
38 37 35 30 28 25 29 29 30 29 28 28 28 27 31 32 36 38 35 36 39 42 41 38 37 35 36 33 28 28 29 29 27 26 25 24 23 22 21 19 15 11 8
38 41 38 36 37 36 38 39 40 44 44 42 42 39 44 45 47 49 47 44 47 48 50 49 48 53 45 41 40 37 36 37 36 34 31 29 27 26 24 20 18 15 10
42 47 46 44 45 48 48 45 45 48 52 55 55 57 54 55 57 58 58 60 59 59 61 59 56 60 62 58 48 43 44 44 45 42 37 34 33 30 30 26 23 19 14
49 52 53 54 55 59 56 53 54 58 52 62 62 69 67 66 69 69 67 70 72 72 69 68 71 70 70 70 66 55 51 51 52 53 47 43 40 36 33 28 24 21 17
58 56 59 60 57 61 65 65 67 67 63 63 73 70 60 66 74 71 78 79 80 80 79 78 79 78 80 78 78 71 60 59 59 58 54 50 46 42 38 34 30 26 22
62 64 65 68 69 68 68 71 75 79 79 82 72 75 27 44 53 56 61 63 70 73 81 83 85 88 88 86 87 86 80 73 65 65 60 56 52 45 43 38 34 31 26
62 64 66 70 73 71 70 75 77 80 83 86 89 94 96 95 62 53 61 64 67 70 71 76 82 91 95 96 94 98 96 90 85 73 67 63 55 51 47 42 38 35 29
64 64 64 67 68 70 72 76 77 77 78 80 86 90 92 100 108 96 80 78 88 90 86 86 76 88 95 101 103 106 104 106 98 85 83 84 64 57 51 43 42 38 33
57 59 59 58 63 72 69 73 74 75 74 80 93 88 95 93 85 85 104 114 107 97 92 94 94 85 94 96 106 111 112 113 108 102 96 98 79 65 52 50 47 43 36
48 51 53 53 57 63 68 71 77 79 78 81 87 92 92 107 96 106 98 98 101 106 101 98 104 91 92 99 95 108 112 117 112 113 108 111 89 80 68 57 51 46 43
38 42 46 50 53 57 63 68 76 79 82 83 91 91 94 94 98 97 98 99 94 92 102 110 100 99 93 87 80 89 96 115 116 116 119 115 105 98 77 60 55 51 48
26 30 36 41 45 50 54 61 70 76 82 84 88 90 95 99 99 98 98 95 94 92 99 78 82 87 85 82 78 80 78 90 106 118 118 118 101 106 80 63 59 54 48
36 37 39 41 42 45 48 55 62 68 75 81 86 88 92 94 94 97 98 96 98 96 113 84 91 93 87 83 89 87 86 86 88 110 122 120 107 91 81 65 62 57 51
43 44 45 47 49 50 51 56 61 65 72 77 83 88 93 92 96 93 95 97 96 95 102 115 97 99 98 97 94 88 91 88 84 89 121 131 107 87 80 73 66 63 62
46 50 52 54 55 57 58 61 65 67 72 78 81 84 90 92 96 92 92 96 95 93 97 106 101 103 102 100 92 91 86 86 83 86 100 122 108 85 80 81 72 65 63
50 52 56 59 61 61 61 60 63 68 73 77 79 80 83 83 87 86 87 83 90 91 93 97 101 99 102 99 92 88 83 82 83 82 78 88 93 86 79 82 71 64 64
57 56 55 58 61 65 67 69 70 71 73 75 77 78 78 78 82 81 77 80 82 87 87 90 94 96 98 100 89 82 81 82 80 76 70 86 91 81 83 78 64 66 57
62 62 62 59 60 63 65 67 69 74 79 81 80 79 78 75 71 67 71 76 78 82 84 87 92 94 98 97 99 91 81 75 75 72 70 85 91 82 77 72 66 60 60
73 72 70 70 69 65 65 68 74 77 75 77 82 83 79 72 67 65 70 72 75 80 86 88 92 95 95 97 92 80 72 70 68 75 71 90 98 92 83 75 67 64 61
78 78 78 76 75 69 67 68 70 74 76 77 76 77 78 76 65 65 69 72 76 79 84 87 92 93 89 88 77 69 69 71 80 71 75 88 93 88 84 75 68 66 56
85 85 83 79 78 75 73 72 71 72 73 74 75 75 72 71 68 63 65 71 72 73 76 79 82 85 83 80 66 57 58 63 64 58 63 67 88 92 86 71 66 60 55
86 87 86 85 85 83 75 73 73 72 72 72 70 68 64 65 61 61 65 71 72 71 68 70 63 65 62 55 49 49 53 61 52 46 62 56 74 74 70 67 61 53 58
84 85 86 82 82 84 79 77 73 72 72 71 71 66 53 53 57 59 61 62 66 62 55 46 39 43 42 39 41 37 45 60 58 45 56 57 52 57 55 63 59 62 58
Wind_Direction_850mb
248 249 252 252 240 241 228 204 170 137 342 332 332 311 282 266 275 271 267 278 239 239 232 202 207 207 185 186 177 174 172 173 169 166 168 158 151 144 139 132 126 116 110
253 251 248 255 245 241 237 237 245 276 305 310 299 297 291 270 274 283 282 281 284 260 251 244 239 242 229 212 205 196 191 192 189 180 179 172 169 161 156 151 142 130 114
255 254 249 252 256 258 256 242 236 265 280 295 287 284 285 277 278 282 285 285 281 278 258 246 231 228 236 220 213 207 207 202 201 198 194 184 189 184 180 174 166 158 139
253 253 253 252 256 257 257 259 260 261 267 262 268 277 275 286 277 267 263 283 290 280 273 262 263 231 224 217 226 221 214 211 210 208 201 194 201 200 198 194 191 183 177
255 255 258 257 255 259 259 263 265 263 262 264 266 263 264 264 264 262 267 265 262 266 267 266 265 266 254 226 225 223 229 220 215 209 208 211 209 210 211 208 207 206 202
262 260 259 262 260 259 259 259 266 270 268 268 267 265 267 266 264 263 262 260 263 269 263 262 264 262 261 254 239 233 232 229 228 216 218 217 216 210 216 217 217 219 218
266 263 263 264 263 265 269 262 263 264 270 272 266 269 272 268 270 267 263 262 262 262 264 264 261 261 260 258 254 243 234 231 227 228 223 219 221 220 221 221 223 226 226
272 269 266 264 263 264 266 265 263 262 264 267 261 266 263 268 276 275 268 267 268 265 266 266 263 263 263 262 261 255 239 233 231 230 222 222 221 223 222 222 225 229 231
276 275 273 270 271 267 267 268 266 263 262 262 265 258 243 262 273 275 273 270 269 264 267 267 265 263 260 260 260 257 253 240 233 233 228 224 221 223 224 225 226 228 232
278 280 278 274 276 279 275 274 267 270 263 268 263 260 263 258 260 274 266 271 271 268 269 268 267 265 265 262 259 256 254 248 238 234 234 228 225 225 224 225 226 229 227
281 281 281 278 278 280 277 279 273 276 272 272 272 273 272 264 261 261 271 269 270 275 274 267 275 267 267 261 261 258 256 247 242 238 232 236 227 227 225 230 229 229 228
282 282 283 282 282 280 279 278 282 280 280 280 277 273 275 267 276 265 275 270 270 279 276 275 269 275 274 266 264 262 256 248 245 240 235 234 232 221 233 231 230 228 226
279 280 282 277 275 274 277 278 277 277 278 276 273 275 275 275 276 269 271 276 274 287 277 283 276 279 284 274 276 265 261 250 246 243 240 230 228 226 236 229 230 229 224
280 279 276 272 269 265 265 271 272 274 274 272 274 276 274 273 273 276 273 278 275 279 281 282 281 282 286 278 285 279 272 256 248 240 238 236 230 230 235 230 227 225 224
296 287 282 280 278 275 270 268 265 265 268 270 270 270 271 274 275 274 277 273 276 274 275 276 281 283 282 282 282 284 275 268 253 239 241 235 229 235 229 224 225 223 226
308 303 298 293 288 282 278 275 273 272 272 274 273 272 271 271 273 273 273 273 273 271 275 275 279 281 282 278 282 281 280 277 263 244 238 233 230 235 226 220 222 221 229
317 311 305 299 295 292 289 284 281 279 277 277 277 277 277 277 277 274 275 273 274 273 271 282 279 280 280 283 281 281 282 274 270 250 235 236 239 223 224 220 218 222 241
321 317 313 308 304 301 296 290 287 283 280 279 278 276 276 274 273 270 273 274 274 276 275 278 282 282 284 285 282 279 277 273 266 257 239 235 239 217 219 220 218 233 232
325 320 317 316 314 310 304 299 293 290 288 287 285 282 280 278 276 273 272 275 275 276 276 277 281 280 281 279 277 276 273 268 261 256 245 234 217 213 212 219 229 229 246
325 320 317 314 312 309 308 305 301 298 295 293 290 287 283 278 274 276 275 274 275 276 276 275 278 277 278 278 275 270 266 263 254 250 239 228 215 209 213 224 219 234 232
323 320 316 311 308 307 306 305 302 300 298 294 291 290 288 284 281 278 274 274 274 273 272 272 273 273 272 274 272 273 266 258 249 245 231 217 211 207 218 214 227 221 229
322 320 318 314 311 307 304 302 301 299 299 299 297 293 289 288 286 278 274 271 269 270 270 270 271 269 272 274 272 272 265 241 228 237 224 214 208 211 214 223 223 226 241
319 319 319 318 313 313 310 307 304 303 302 300 296 295 294 291 287 283 280 276 271 267 266 270 271 269 272 270 275 272 262 256 241 230 214 211 214 214 216 218 227 242 242
313 314 314 314 312 313 311 309 307 305 302 299 297 295 292 291 288 286 285 280 277 274 270 268 265 269 268 271 274 275 273 248 232 232 215 200 212 213 217 223 234 236 241
307 308 310 313 312 311 311 310 308 306 303 300 298 295 294 292 288 284 281 281 281 278 275 272 269 263 264 264 263 259 233 218 197 201 201 203 204 212 217 228 229 232 236
306 307 307 310 312 310 310 309 307 303 301 300 297 299 300 291 288 285 281 280 279 283 284 281 271 262 253 250 254 253 248 213 198 185 202 202 212 214 217 225 225 226 228